This demonstration page uses our WeatherBlox Daily Observations layout. Learn more.

Left ArrowRight Arrow

39.01783, -85.05884

Hourly Observations for March 26, 2015

Temp ( °F °C ) Dew Point ( °F °C ) Humidity (%) Winds ( mph kmh ) Pressure ( in mb ) Visibility ( mi km ) Precip ( " mm )
12:52 am 00:52 Cloudy 53 11.7 46 7.8 77 77 N 6 9 29.94 1014 9 14 0.00 0.00
1:52 am 01:52 Cloudy 51 10.6 46 7.8 83 83 Calm 29.91 1013 8 13 0.00 0.00
2:52 am 02:52 Cloudy 52 11.1 46 7.8 80 80 N 7 11 29.89 1012 8 13 0.00 0.00
3:52 am 03:52 Cloudy with Light Rain 50 10 46 7.8 86 86 NW 18 30 29.91 1013 5 8 0.02 0.51
4:23 am 04:23 Cloudy with Heavy Rain 48 9 45 7 87 87 N 22 35 29.88 1012 2 3 0.08 2.03
4:34 am 04:34 Cloudy with Light Rain 48 9 45 7 87 87 NNE 17 28 29.88 1012 3 5 0.12 3.05
4:52 am 04:52 Cloudy with Mist and Fog 48 8.9 46 7.8 93 93 N 15 24 29.86 1011 6 10 0.12 3.05
5:52 am 05:52 Cloudy with Heavy Rain 47 8.3 46 7.8 97 97 NNE 14 22 29.83 1010 2 3 0.08 2.03
6:18 am 06:18 Cloudy with Rain 46 8 46 8 100 100 NW 12 19 29.88 1012 3 5 0.08 2.03
6:42 am 06:42 Cloudy with Rain 46 8 46 8 100 100 NE 9 15 29.83 1010 3 5 0.00 0.00
6:52 am 06:52 Cloudy with Light Rain 46 7.8 46 7.8 100 100 NE 9 15 29.82 1010 4 6 0.17 4.32
7:11 am 07:11 Cloudy with Light Rain 46 8 46 8 100 100 ENE 7 11 29.83 1010 5 8 0.01 0.25
7:24 am 07:24 Cloudy with Rain 46 8 46 8 100 100 NNE 15 24 29.83 1010 3 5 0.02 0.51
7:31 am 07:31 Cloudy with Rain 46 8 46 8 100 100 NNE 8 13 29.83 1010 3 4 0.03 0.76
7:52 am 07:52 Cloudy with Rain 46 7.8 45 7.2 96 96 NNW 10 17 29.84 1011 3 4 0.10 2.54
8:52 am 08:52 Cloudy with Light Rain 45 7.2 45 7.2 100 100 N 13 20 29.84 1011 3 4 0.10 2.54
9:52 am 09:52 Cloudy with Rain 44 6.7 44 6.7 100 100 NNW 9 15 29.85 1011 3 4 0.02 0.51
10:31 am 10:31 Cloudy with Light Rain 45 7 45 7 100 100 NNW 8 13 29.91 1013 3 4 0.03 0.76
10:36 am 10:36 Cloudy with Light Rain 45 7 45 7 100 100 NNW 10 17 29.91 1013 5 8 0.00 0.00
10:52 am 10:52 Cloudy with Light Rain 44 6.7 44 6.7 100 100 N 12 19 29.87 1012 5 8 0.04 1.02
11:52 am 11:52 Cloudy with Light Rain 44 6.7 44 6.7 100 100 NNW 12 19 29.89 1012 6 10 0.01 0.25
12:25 pm 12:25 Cloudy with Light Rain 45 7 45 7 100 100 NNW 12 19 29.91 1013 7 11 0.01 0.25
12:45 pm 12:45 Cloudy with Light Rain 45 7 43 6 93 93 NNW 13 20 29.91 1013 8 13 0.02 0.51
12:52 pm 12:52 Cloudy with Light Rain 45 7.2 42 5.6 90 90 NNW 12 19 29.88 1012 8 13 0.02 0.51
1:13 pm 13:13 Cloudy with Light Rain 45 7 43 6 93 93 NNW 14 22 29.91 1013 10 16 0.00 0.03
1:44 pm 13:44 Cloudy 46 8 43 6 87 87 NNW 10 17 29.88 1012 10 16 0.00 0.00
1:52 pm 13:52 Cloudy 46 7.8 42 5.6 86 86 NNW 8 13 29.87 1011 10 16 0.00 0.03
2:23 pm 14:23 Cloudy 46 8 41 5 82 82 NNW 8 13 29.88 1012 10 16 0.00 0.00
2:43 pm 14:43 Cloudy with Light Rain 46 8 41 5 82 82 NW 10 17 29.88 1012 10 16 0.00 0.03
2:52 pm 14:52 Cloudy with Light Rain 46 7.8 42 5.6 86 86 NNW 8 13 29.87 1011 10 16 0.00 0.03
3:52 pm 15:52 Cloudy with Light Rain 46 7.8 41 5 83 83 NNW 13 20 29.89 1012 10 16 0.00 0.03
4:07 pm 16:07 Cloudy with Light Rain 45 7 41 5 87 87 WNW 13 20 29.94 1014 10 16 0.00 0.03
4:52 pm 16:52 Cloudy 45 7.2 40 4.4 83 83 WNW 15 24 29.89 1012 10 16 0.00 0.03
5:43 pm 17:43 Cloudy 43 6 36 2 76 76 NW 13 20 29.94 1014 10 16 0.00 0.00
5:52 pm 17:52 Cloudy 43 6.1 36 2.2 76 76 NW 12 19 29.90 1013 10 16 0.00 0.00
6:38 pm 18:38 Cloudy 43 6 34 1 71 71 NW 9 15 29.94 1014 10 16 0.00 0.00
6:52 pm 18:52 Cloudy 42 5.6 34 1.1 73 73 NW 5 7 29.92 1013 10 16 0.00 0.00
7:44 pm 19:44 Cloudy 43 6 36 2 76 76 NW 9 15 29.97 1015 10 16 0.00 0.00
7:52 pm 19:52 Cloudy 42 5.6 35 1.7 76 76 NNW 12 19 29.93 1014 10 16 0.00 0.00
8:17 pm 20:17 Cloudy 41 5 34 1 76 76 NW 7 11 29.97 1015 10 16 0.00 0.00
8:52 pm 20:52 Cloudy 41 5 33 0.6 73 73 NNW 8 13 29.95 1014 10 16 0.00 0.00
9:52 pm 21:52 Cloudy 40 4.4 32 0 73 73 NW 9 15 29.97 1015 10 16 0.00 0.00
10:52 pm 22:52 Cloudy 40 4.4 32 0 73 73 VRB 5 7 29.97 1015 10 16 0.00 0.00
11:52 pm 23:52 Partly Cloudy 36 2.2 30 -1.1 79 79 W 6 9 29.98 1015 9 14 0.00 0.00

Powered by AerisWeather